{"data":{"norad_id":63159,"epoch":"2026-09-22T20:36:41.272992Z","epoch_age_seconds":106944,"freshness":"FRESH","line1":"1 63159U 25046A   26265.85881103  .00000063  00000+0  79168-4 0  9999","line2":"2 63159  88.9639 290.5189 0015760  29.8513 330.3534 13.51025730 85775","mean_motion":13.5102573,"eccentricity":0.001576,"inclination_deg":88.9639,"raan_deg":290.5189,"arg_perigee_deg":29.8513,"mean_anomaly_deg":330.3534,"bstar":7.9168e-5,"rev_number":8577,"period_min":106.58568286483,"perigee_km":1056.7511580057,"apogee_km":1080.2229169719,"semimajor_km":7446.6240374888,"source":"CELESTRAK","updated_at":"2026-09-23T09:00:21.846134Z"}}